EW1979 Weather Reports


Display with metric or nautical units.
time (UTC)temp
F
wind
direction
speed
MPH
gust
MPH
rain 1hr
in
rain 24hr
in
rain mn
in
humidity
%
barometer
mb
20260506140002 71 156 0.0 0.0 0.00 0.00 0.00 100 1006.6
20260506134502 71 168 0.0 0.0 0.00 0.00 0.00 100 1006.2
20260506133003 71 168 0.0 0.0 0.00 0.00 0.00 100 1005.9
20260506131606 71 168 0.0 0.0 0.00 0.00 0.00 100 1005.7
20260506130104 71 168 0.0 0.0 0.00 0.00 0.00 100 1005.7
20260506124604 71 167 0.0 0.0 0.00 0.00 0.00 100 1005.0
20260506123007 71 167 0.0 0.0 0.00 0.00 0.00 100 1004.9
20260506121602 71 167 0.0 0.0 0.00 0.00 0.00 100 1004.9
20260506120008 71 167 0.0 0.0 0.00 0.00 0.00 100 1004.8
20260506113025 71 167 0.0 0.0 0.00 0.00 0.00 100 1004.8
20260506111510 71 168 0.0 0.0 0.00 0.00 0.00 100 1004.9
20260506110009 71 168 0.0 0.0 0.00 0.00 0.00 100 1005.1
20260506104501 71 168 0.0 0.0 0.00 0.00 0.00 100 1005.1
20260506103114 71 161 0.0 0.0 0.00 0.00 0.00 100 1005.0
20260506101553 71 157 0.0 0.0 0.00 0.00 0.00 100 1004.8
20260506100050 71 155 0.0 0.0 0.00 0.00 0.00 100 1004.7
20260506094544 71 164 0.0 0.0 0.00 0.00 0.00 100 1004.9
20260506093040 71 167 0.0 0.0 0.00 0.00 0.00 100 1004.8
20260506091536 71 181 0.0 0.0 0.00 0.00 0.00 100 1004.6
20260506090043 71 155 0.0 0.0 0.00 0.00 0.00 100 1004.5
20260506084527 71 165 0.0 0.0 0.00 0.00 0.00 100 1004.4
20260506083022 71 156 0.0 0.0 0.00 0.00 0.00 100 1004.3
20260506081518 71 152 0.0 0.0 0.00 0.00 0.00 1 1004.5
20260506073009 72 154 0.0 0.0 0.00 0.00 0.00 13 1004.6
20260506071506 72 167 0.0 0.0 0.00 0.00 0.00 18 1004.8
20260506061602 73 159 0.0 0.0 0.00 0.00 0.00 34 1005.2
20260506050109 74 153 0.0 0.0 0.00 0.00 0.00 41 1005.1
20260506044551 74 144 0.0 0.0 0.00 0.00 0.00 41 1005.5
20260506043043 74 146 0.0 0.0 0.00 0.00 0.00 44 1005.1
20260506041538 74 130 0.0 0.0 0.00 0.00 0.00 48 1005.1
20260506040032 74 152 0.0 0.0 0.00 0.00 0.00 57 1004.9
20260506034529 74 152 0.0 0.0 0.00 0.00 0.00 63 1004.7
20260506033025 74 152 0.0 0.0 0.00 0.00 0.00 68 1004.6
20260506031520 74 152 0.0 0.0 0.00 0.00 0.00 71 1004.4
20260506030021 75 153 0.0 0.0 0.00 0.00 0.00 74 1004.1
20260506024530 75 153 0.0 0.0 0.00 0.00 0.00 76 1004.0
20260506023006 75 165 0.0 0.0 0.00 0.00 0.00 77 1003.6
20260506021502 75 171 0.0 0.0 0.00 0.00 0.00 78 1003.4
20260506020057 76 171 0.0 0.0 0.00 0.00 0.00 78 1003.1
20260506014554 76 171 0.0 0.0 0.00 0.00 0.00 78 1002.9
20260506013102 77 180 0.0 0.0 0.00 0.00 0.00 78 1002.7
20260506011602 77 183 0.0 0.0 0.00 0.00 0.00 77 1002.4
20260506010045 78 192 0.0 0.0 0.00 0.00 0.00 76 1002.2
20260506004540 79 165 0.0 0.0 0.00 0.00 0.00 75 1002.5
20260506003037 80 165 0.0 0.0 0.00 0.00 0.00 74 1002.5
20260506001538 80 165 0.0 0.0 0.00 0.00 0.00 73 1002.5
20260506000032 80 173 0.0 0.0 0.00 0.00 0.00 71 1002.6
20260505234523 80 181 0.0 0.0 0.00 0.00 0.00 70 1002.4
20260505233019 81 161 0.0 0.0 0.00 0.00 0.00 69 1002.4
20260505231514 80 186 0.0 0.0 0.00 0.00 0.00 71 1002.5
20260505230010 80 165 0.0 0.0 0.00 0.00 0.00 71 1002.3
20260505224505 81 178 0.0 0.0 0.00 0.00 0.00 70 1002.3
20260505223001 81 197 0.0 0.0 0.00 0.00 0.00 70 1002.2
20260505221601 81 200 0.0 0.0 0.00 0.00 0.00 69 1002.2
20260505220053 81 177 0.0 0.0 0.00 0.00 0.00 71 1002.2
20260505214612 82 198 0.0 0.0 0.00 0.00 0.00 70 1002.2
20260505213046 81 195 0.0 0.0 0.00 0.00 0.00 70 1002.2
20260505211541 82 240 0.0 0.0 0.00 0.00 0.00 69 1002.6
20260505210038 81 194 0.0 0.0 0.00 0.00 0.00 71 1002.8
20260505204535 81 160 0.0 0.0 0.00 0.00 0.00 69 1003.1
20260505203028 81 206 0.0 0.0 0.00 0.00 0.00 70 1003.3
20260505201524 80 206 0.0 0.0 0.00 0.00 0.00 71 1003.5
20260505200020 79 178 0.0 0.0 0.00 0.00 0.00 73 1003.7
20260505194515 79 183 0.0 0.0 0.00 0.00 0.00 72 1004.0
20260505193012 78 175 0.0 0.0 0.00 0.00 0.00 72 1004.1
20260505191506 78 210 0.0 0.0 0.00 0.00 0.00 73 1004.2
20260505190002 78 198 0.0 0.0 0.00 0.00 0.00 71 1004.3
20260505184557 76 194 0.0 0.0 0.00 0.00 0.00 68 1004.8
20260505183104 74 198 0.0 0.0 0.00 0.00 0.00 15 1005.8
20260505181551 72 215 0.0 0.0 0.00 0.00 0.00 100 1006.0
20260505180050 71 202 0.0 0.0 0.00 0.00 0.00 100 1006.1
20260505174550 70 206 0.0 0.0 0.00 0.00 0.00 100 1006.4
20260505173036 69 208 0.0 0.0 0.00 0.00 0.00 100 1006.4
20260505171531 69 197 0.0 0.0 0.00 0.00 0.00 100 1006.3
20260505170028 69 196 0.0 0.0 0.00 0.00 0.00 100 1006.6
20260505164522 69 200 0.0 0.0 0.00 0.00 0.00 100 1006.2
20260505163020 68 205 0.0 0.0 0.00 0.00 0.00 100 1006.2
20260505161517 68 195 0.0 0.0 0.00 0.00 0.00 100 1006.3
20260505153109 67 219 0.0 0.0 0.00 0.00 0.00 100 1006.1
20260505151607 67 186 0.0 0.0 0.00 0.00 0.00 100 1006.2